• Join FlightAware (Why Join?)
  • Login
  • US Flag GB Flag 
14:02 EST


 

Airport Tracker/Info


-or-


 

Live Flight TrackerFlight Track Log ✈ SWA378 ✈ 02-May-2013 ✈ KBWI - KALB

Flight Track Log - Related Links

Times and Time Zones

All times are in EDT time to prevent confusion due to time zone crossing. See the SWA378 flight status page for this flight to view local times or setup timezone preferences in your user account.

Time Position Orientation Groundspeed Altitude Reporting Facility
EDT Latitude Longitude Course Direction KTS MPH feet Rate Location/Type
22:29 39.1333 -76.6333 284° West 191 220 2,400  Level Potomac TRACON
22:32 39.1122 -76.4692 99° East 232 267 9,300 2,820 Climbing Washington Center
22:33 39.1275 -76.3647 79° East 265 305 11,900 2,580 Climbing Washington Center
22:34 39.1450 -76.2447 79° East 298 343 14,500 2,880 Climbing Washington Center
22:35 39.1506 -76.5528 284° West  Level FlightAware Approximate
22:35 39.1644 -76.1136 79° East 343 395 17,700  Level Washington Center
22:36 39.1817 -75.9744 81° East 377 434 19,800 2,400 Climbing Washington Center
22:37 39.2194 -75.8433 70° East 391 450 22,500 1,800 Climbing Washington Center
22:38 39.3008 -75.7392 45° Northeast 386 444 23,400 1,860 Climbing Washington Center
22:39 39.3803 -75.6400 44° Northeast 395 455 26,300 2,280 Climbing Washington Center
22:40 39.4614 -75.5350 45° Northeast 395 455 28,100 1,320 Climbing Washington Center
22:41 39.5447 -75.4247 46° Northeast 405 466 29,000 420 Climbing Washington Center
22:42 39.6258 -75.3194 45° Northeast 410 472 29,000  Level Washington Center
22:43 39.7131 -75.2192 41° Northeast 410 472 29,000  Level Washington Center
22:45 39.9103 -75.0683 30° Northeast 408 470 29,000  Level New York Center
22:46 40.0017 -74.9603 42° Northeast 402 463 29,000  Level New York Center
22:47 40.0703 -74.8450 52° Northeast 390 449 29,000  Level New York Center
22:48 40.1428 -74.7378 48° Northeast 390 449 29,000  Level New York Center
22:49 40.2169 -74.6333 47° Northeast 390 449 29,000  Level New York Center
22:50 40.2914 -74.5261 48° Northeast 390 449 29,000  Level New York Center
22:51 40.3675 -74.4239 46° Northeast 390 449 29,000  Level New York Center
22:52 40.4436 -74.3244 45° Northeast 390 449 29,000  Level New York Center
22:53 40.5658 -74.1611 45° Northeast 388 447 29,000 -480 Level Boston Center
22:54 40.6403 -74.0592 46° Northeast 388 447 27,900 -1,140 Descending Boston Center
22:55 40.7125 -73.9678 44° Northeast 388 447 26,800 -1,920 Descending Boston Center
22:56 40.7908 -73.8656 45° Northeast 393 452 24,100 -1,440 Descending Boston Center
22:57 40.8711 -73.7686 42° Northeast 393 452 24,000 -60 Descending Boston Center
22:58 40.9581 -73.6547 45° Northeast 393 452 24,000 -180 Level Boston Center
22:59 41.0317 -73.5736 40° Northeast 385 443 23,700 -660 Descending Boston Center
23:00 41.1300 -73.5425 13° North 354 407 22,700 -1,080 Descending Boston Center
23:01 41.2361 -73.5608 353° North 354 407 21,600 -1,080 Descending Boston Center
23:02 41.3358 -73.5764 353° North 359 413 20,600 -1,020 Descending Boston Center
23:03 41.4422 -73.5892 355° North 364 419 19,600 -1,020 Descending Boston Center
23:04 41.5378 -73.6106 350° North 364 419 18,600 -900 Descending Boston Center
23:05 41.6461 -73.6264 354° North 364 419 17,900 -840 Descending Boston Center
23:06 41.7356 -73.6392 354° North 364 419 17,000 -1,020 Descending Boston Center
23:07 41.8394 -73.6578 352° North 349 402 15,900 -1,140 Descending Boston Center
23:08 41.8978 -73.6672 353° North 352 405 15,300 -900 Descending Boston Center
23:08 41.9269 -73.6733 351° North 349 402 15,000 -900 Descending Boston Center
23:09 41.9997 -73.6861 353° North 341 392 14,300 -1,140 Descending Boston Center
23:09 42.0289 -73.6922 351° North 349 402 13,900 -1,020 Descending Boston Center
23:10 42.0911 -73.7047 352° North 338 389 13,300 -1,020 Descending Boston Center
23:10 42.1225 -73.7053 359° North 343 395 12,900 -1,020 Descending Boston Center
23:11 42.1831 -73.6953 North 330 380 12,300 -1,020 Descending Boston Center
23:11 42.2142 -73.6931 North 336 387 11,900 -1,380 Descending Boston Center
23:12 42.2728 -73.6886 North 325 374 10,900 -1,620 Descending Boston Center
23:12 42.3019 -73.6836 North 324 373 10,300 -1,140 Descending Boston Center
23:13 42.3583 -73.6764 North 304 350 9,800 -900 Descending Boston Center
23:13 42.3811 -73.6711 10° North 297 342 9,400 -1,320 Descending Boston Center
23:14 42.4375 -73.6694 North 266 306 8,500 -1,320 Descending Boston Center
23:14 42.4564 -73.6614 17° North 279 321 8,100 -1,740 Descending Boston Center
23:15 42.5128 -73.6597 North 266 306 6,800 -1,800 Descending Boston Center
23:15 42.5336 -73.6600 359° North 269 310 6,300 -1,620 Descending Boston Center
23:16 42.5897 -73.6669 355° North 275 316 5,200 -1,440 Descending Boston Center
23:16 42.6083 -73.6672 359° North 269 310 4,900 -1,200 Descending Boston Center
23:17 42.6647 -73.6739 355° North 274 315 4,000 -840 Descending Boston Center
23:17 42.6833 -73.6742 359° North 269 310 4,100 -600 Climbing Boston Center
23:18 42.7311 -73.6839 351° North 231 266 3,400 -1,020 Descending Boston Center
23:18 42.7481 -73.6814 North 247 284 3,100 -1,200 Descending Boston Center
23:19 42.7917 -73.6850 357° North 210 242 2,200 -900 Descending Boston Center
23:19 42.7897 -73.6822 134° Southeast 223 257 2,200 -420 Level Boston Center
23:20 42.8456 -73.7117 339° North 209 241 1,800 -300 Descending Boston Center
23:21 42.8364 -73.7764 259° West 161 185 1,700 -240 Descending Boston Center
23:22 42.8111 -73.8128 227° Southwest 135 155 1,400 -600 Descending Boston Center
23:23 42.7736 -73.8092 176° South 130 150 600 -840 Descending Boston Center